Location: ??????????
(48.4699°N, 37.9573°E)
Time: 13:06:49
(UTC+00:00)

Cosmos 1025 Rocket - Pass Details

Date: 20 January 2021
Orbit: 594 x 618 km, 82.5° (Epoch: 26 February)

Event Time Altitude Azimuth Distance (km) Brightness Sun altitude
Rises 14:51:11 0° 208° (SSW) 2,847 7.3 -7.2°
Reaches altitude 10° 14:53:29 10° 215° (SW) 1,953 6.6 -7.6°
Maximum altitude 14:57:33 40° 286° (WNW) 909 4.5 -8.2°
Drops below altitude 10° 15:01:42 10° 356° (N) 1,982 5.5 -8.9°
Sets 15:04:03 0° 4° (N) 2,895 6.3 -9.2°
